Time,TemperatureF,DewpointF,PressureIn,WindDirection,WindDirectionDegrees,WindSpeedMPH,WindSpeedGustMPH,Humidity,HourlyPrecipIn,Conditions,Clouds,dailyrainin,SoftwareType,DateUTC
2013-03-11 00:00:00,48.7,35.4,28.61,SSE,165,0.0,0.0,60,0.00,CLR,CLR,0.00,WeatherDisplay:10.37,2013-03-11 04:00:00,
2013-03-11 00:02:00,48.6,35.3,28.61,SSE,165,0.0,0.0,60,0.00,CLR,CLR,0.00,WeatherDisplay:10.37,2013-03-11 04:02:00,
2013-03-11 00:03:00,48.6,35.3,28.61,SSE,165,0.0,0.0,60,0.00,CLR,CLR,0.00,WeatherDisplay:10.37,2013-03-11 04:03:00,
2013-03-11 00:08:00,48.5,35.7,28.62,SSE,165,2.3,2.3,61,0.00,CLR,CLR,0.00,WeatherDisplay:10.37,2013-03-11 04:08:00,
2013-03-11 00:13:00,48.4,35.1,28.61,SSE,165,0.0,0.0,60,0.00,CLR,CLR,0.00,WeatherDisplay:10.37,2013-03-11 04:13:00,
2013-03-11 00:19:00,48.3,35.5,28.61,SSE,168,4.0,4.0,61,0.00,CLR,CLR,0.00,WeatherDisplay:10.37,2013-03-11 04:19:00,
2013-03-11 00:24:00,48.4,35.6,28.61,South,189,3.5,0.0,61,0.00,CLR,CLR,0.00,WeatherDisplay:10.37,2013-03-11 04:24:00,
2013-03-11 00:29:00,48.4,35.6,28.61,South,186,3.5,3.5,61,0.00,CLR,CLR,0.00,WeatherDisplay:10.37,2013-03-11 04:29:00,
2013-03-11 00:34:00,48.3,35.5,28.61,South,185,0.0,0.0,61,0.00,CLR,CLR,0.00,WeatherDisplay:10.37,2013-03-11 04:34:00,
2013-03-11 00:39:00,48.1,35.7,28.60,South,185,0.0,0.0,62,0.00,CLR,CLR,0.00,WeatherDisplay:10.37,2013-03-11 04:39:00,
2013-03-11 00:44:00,47.9,35.5,28.60,South,185,0.0,0.0,62,0.00,CLR,CLR,0.00,WeatherDisplay:10.37,2013-03-11 04:44:00,
2013-03-11 00:50:00,47.8,35.4,28.60,South,186,0.0,0.0,62,0.00,CLR,CLR,0.00,WeatherDisplay:10.37,2013-03-11 04:50:00,
2013-03-11 00:55:00,47.7,35.7,28.60,South,185,0.0,0.0,63,0.00,CLR,CLR,0.00,WeatherDisplay:10.37,2013-03-11 04:55:00,
2013-03-11 01:00:00,47.7,35.7,28.60,South,184,3.5,3.5,63,0.00,CLR,CLR,0.00,WeatherDisplay:10.37,2013-03-11 05:00:00,
2013-03-11 01:05:00,47.7,35.7,28.59,South,179,3.5,3.5,63,0.00,CLR,CLR,0.00,WeatherDisplay:10.37,2013-03-11 05:05:00,
2013-03-11 01:10:00,47.6,35.2,28.59,South,179,0.0,0.0,62,0.00,CLR,CLR,0.00,WeatherDisplay:10.37,2013-03-11 05:10:00,
2013-03-11 01:15:00,47.5,35.1,28.59,South,179,0.0,0.0,62,0.00,CLR,CLR,0.00,WeatherDisplay:10.37,2013-03-11 05:15:00,
2013-03-11 01:20:00,47.3,35.3,28.59,South,179,0.0,0.0,63,0.00,CLR,CLR,0.00,WeatherDisplay:10.37,2013-03-11 05:20:00,
2013-03-11 01:25:00,47.2,35.2,28.58,South,179,2.3,2.3,63,0.00,CLR,CLR,0.00,WeatherDisplay:10.37,2013-03-11 05:25:00,
2013-03-11 01:31:00,47.0,35.4,28.59,South,180,3.5,3.5,64,0.00,CLR,CLR,0.00,WeatherDisplay:10.37,2013-03-11 05:31:00,
2013-03-11 01:36:00,47.2,35.2,28.58,SSE,152,3.5,3.5,63,0.00,CLR,CLR,0.00,WeatherDisplay:10.37,2013-03-11 05:36:00,
2013-03-11 01:41:00,47.2,35.2,28.58,South,172,3.5,3.5,63,0.00,CLR,CLR,0.00,WeatherDisplay:10.37,2013-03-11 05:41:00,
2013-03-11 01:46:00,47.3,35.3,28.59,SSE,161,8.1,8.1,63,0.00,CLR,CLR,0.00,WeatherDisplay:10.37,2013-03-11 05:46:00,
2013-03-11 01:51:00,47.5,35.1,28.58,South,183,3.5,3.5,62,0.00,CLR,CLR,0.00,WeatherDisplay:10.37,2013-03-11 05:51:00,
2013-03-11 01:56:00,47.7,34.9,28.59,South,184,6.0,6.0,61,0.00,CLR,CLR,0.00,WeatherDisplay:10.37,2013-03-11 05:56:00,
2013-03-11 02:02:00,47.7,34.9,28.58,South,186,10.4,10.4,61,0.00,CLR,CLR,0.00,WeatherDisplay:10.37,2013-03-11 06:02:00,
2013-03-11 02:07:00,47.6,34.4,28.59,South,170,8.1,8.1,60,0.00,CLR,CLR,0.00,WeatherDisplay:10.37,2013-03-11 06:07:00,
2013-03-11 02:12:00,47.8,34.2,28.59,South,172,11.5,11.5,59,0.00,CLR,CLR,0.00,WeatherDisplay:10.37,2013-03-11 06:12:00,
2013-03-11 02:17:00,48.0,34.3,28.58,South,173,7.0,7.0,59,0.00,CLR,CLR,0.00,WeatherDisplay:10.37,2013-03-11 06:17:00,
2013-03-11 02:22:00,48.0,33.9,28.58,South,183,6.9,6.9,58,0.00,CLR,CLR,0.00,WeatherDisplay:10.37,2013-03-11 06:22:00,
2013-03-11 02:27:00,48.0,33.9,28.58,South,180,5.0,5.1,58,0.00,CLR,CLR,0.00,WeatherDisplay:10.37,2013-03-11 06:27:00,
2013-03-11 02:33:00,48.1,34.0,28.58,South,189,6.9,6.9,58,0.00,CLR,CLR,0.00,WeatherDisplay:10.37,2013-03-11 06:33:00,
2013-03-11 02:38:00,47.8,33.7,28.58,South,189,8.1,8.1,58,0.00,CLR,CLR,0.00,WeatherDisplay:10.37,2013-03-11 06:38:00,
2013-03-11 02:43:00,47.4,33.4,28.58,South,185,9.2,9.2,58,0.00,CLR,CLR,0.00,WeatherDisplay:10.37,2013-03-11 06:43:00,
2013-03-11 02:48:00,47.3,33.3,28.58,South,187,9.2,9.2,58,0.00,CLR,CLR,0.00,WeatherDisplay:10.37,2013-03-11 06:48:00,
2013-03-11 02:53:00,47.2,32.7,28.59,South,177,5.8,5.8,57,0.00,CLR,CLR,0.00,WeatherDisplay:10.37,2013-03-11 06:53:00,
2013-03-11 02:58:00,47.2,32.7,28.58,South,185,3.5,3.5,57,0.00,CLR,CLR,0.00,WeatherDisplay:10.37,2013-03-11 06:58:00,
2013-03-11 03:03:00,47.0,33.0,28.58,South,188,5.8,5.8,58,0.00,CLR,CLR,0.00,WeatherDisplay:10.37,2013-03-11 07:03:00,
2013-03-11 03:09:00,46.8,32.8,28.58,South,185,3.5,3.5,58,0.00,CLR,CLR,0.00,WeatherDisplay:10.37,2013-03-11 07:09:00,
2013-03-11 03:14:00,46.6,32.6,28.57,SSE,157,3.5,3.5,58,0.00,CLR,CLR,0.00,WeatherDisplay:10.37,2013-03-11 07:14:00,
2013-03-11 03:19:00,46.4,32.4,28.57,South,179,6.0,6.0,58,0.00,CLR,CLR,0.00,WeatherDisplay:10.37,2013-03-11 07:19:00,
2013-03-11 03:24:00,46.2,32.2,28.58,South,174,4.6,4.6,58,0.00,CLR,CLR,0.00,WeatherDisplay:10.37,2013-03-11 07:24:00,
2013-03-11 03:29:00,46.0,32.5,28.57,SSW,207,5.8,5.8,59,0.00,CLR,CLR,0.00,WeatherDisplay:10.37,2013-03-11 07:29:00,
2013-03-11 03:35:00,45.9,32.4,28.57,South,178,4.6,4.6,59,0.00,CLR,CLR,0.00,WeatherDisplay:10.37,2013-03-11 07:35:00,
2013-03-11 03:40:00,45.9,32.4,28.57,South,185,3.5,3.5,59,0.00,CLR,CLR,0.00,WeatherDisplay:10.37,2013-03-11 07:40:00,
2013-03-11 03:45:00,45.8,31.9,28.57,South,187,3.5,3.5,58,0.00,CLR,CLR,0.00,WeatherDisplay:10.37,2013-03-11 07:45:00,
2013-03-11 03:50:00,45.6,31.7,28.56,South,171,2.3,2.3,58,0.00,CLR,CLR,0.00,WeatherDisplay:10.37,2013-03-11 07:50:00,
2013-03-11 03:55:00,45.5,31.6,28.56,SSE,161,3.5,3.5,58,0.00,CLR,CLR,0.00,WeatherDisplay:10.37,2013-03-11 07:55:00,
2013-03-11 04:00:00,45.2,31.3,28.56,South,180,3.5,3.5,58,0.00,CLR,CLR,0.00,WeatherDisplay:10.37,2013-03-11 08:00:00,
2013-03-11 04:05:00,45.1,31.2,28.56,SSE,164,3.5,3.5,58,0.00,CLR,CLR,0.00,WeatherDisplay:10.37,2013-03-11 08:05:00,
2013-03-11 04:10:00,45.0,31.1,28.56,SSW,192,3.5,3.5,58,0.00,CLR,CLR,0.00,WeatherDisplay:10.37,2013-03-11 08:10:00,
2013-03-11 04:15:00,45.0,30.7,28.56,South,182,4.6,4.6,57,0.00,CLR,CLR,0.00,WeatherDisplay:10.37,2013-03-11 08:15:00,
2013-03-11 04:20:00,45.2,30.9,28.56,SSE,164,5.8,5.8,57,0.00,CLR,CLR,0.00,WeatherDisplay:10.37,2013-03-11 08:20:00,
2013-03-11 04:25:00,45.3,30.5,28.55,SSE,168,3.5,3.5,56,0.00,CLR,CLR,0.00,WeatherDisplay:10.37,2013-03-11 08:25:00,
2013-03-11 04:30:00,45.3,30.1,28.55,SSE,168,3.5,3.5,55,0.00,CLR,CLR,0.00,WeatherDisplay:10.37,2013-03-11 08:30:00,
2013-03-11 04:35:00,45.0,29.8,28.55,SSE,168,1.0,1.0,55,0.00,CLR,CLR,0.00,WeatherDisplay:10.37,2013-03-11 08:35:00,
2013-03-11 04:41:00,44.7,30.0,28.55,SSE,168,1.2,1.2,56,0.00,CLR,CLR,0.00,WeatherDisplay:10.37,2013-03-11 08:41:00,
2013-03-11 04:46:00,44.4,29.7,28.55,SSE,168,2.3,2.3,56,0.00,CLR,CLR,0.00,WeatherDisplay:10.37,2013-03-11 08:46:00,
2013-03-11 04:51:00,44.4,29.2,28.55,SSE,165,3.5,3.5,55,0.00,CLR,CLR,0.00,WeatherDisplay:10.37,2013-03-11 08:51:00,
2013-03-11 04:56:00,44.5,28.9,28.53,South,177,4.0,4.0,54,0.00,CLR,CLR,0.00,WeatherDisplay:10.37,2013-03-11 08:56:00,
2013-03-11 05:01:00,44.6,28.5,28.54,South,181,6.0,6.0,53,0.00,CLR,CLR,0.00,WeatherDisplay:10.37,2013-03-11 09:01:00,
2013-03-11 05:07:00,44.7,28.1,28.53,South,191,3.5,3.5,52,0.00,CLR,CLR,0.00,WeatherDisplay:10.37,2013-03-11 09:07:00,
2013-03-11 05:12:00,44.6,27.6,28.53,South,182,6.0,6.0,51,0.00,CLR,CLR,0.00,WeatherDisplay:10.37,2013-03-11 09:12:00,
2013-03-11 05:17:00,44.5,28.0,28.54,South,187,4.6,4.6,52,0.00,CLR,CLR,0.00,WeatherDisplay:10.37,2013-03-11 09:17:00,
2013-03-11 05:22:00,44.4,27.9,28.54,South,176,5.8,5.8,52,0.00,CLR,CLR,0.00,WeatherDisplay:10.37,2013-03-11 09:22:00,
2013-03-11 05:27:00,44.4,27.9,28.54,South,174,8.1,8.1,52,0.00,CLR,CLR,0.00,WeatherDisplay:10.37,2013-03-11 09:27:00,
2013-03-11 05:33:00,44.4,27.4,28.53,South,174,9.2,9.2,51,0.00,CLR,CLR,0.00,WeatherDisplay:10.37,2013-03-11 09:33:00,
2013-03-11 05:38:00,44.6,27.6,28.54,South,186,4.6,4.6,51,0.00,CLR,CLR,0.00,WeatherDisplay:10.37,2013-03-11 09:38:00,
2013-03-11 05:43:00,44.7,27.7,28.53,South,189,5.8,5.8,51,0.00,CLR,CLR,0.00,WeatherDisplay:10.37,2013-03-11 09:43:00,
2013-03-11 05:48:00,44.6,27.1,28.56,South,172,8.1,8.1,50,0.00,CLR,CLR,0.00,WeatherDisplay:10.37,2013-03-11 09:48:00,
2013-03-11 05:53:00,44.5,26.5,28.56,South,184,5.8,5.8,49,0.00,CLR,CLR,0.00,WeatherDisplay:10.37,2013-03-11 09:53:00,
2013-03-11 05:58:00,44.5,26.0,28.55,South,174,6.9,6.9,48,0.00,CLR,CLR,0.00,WeatherDisplay:10.37,2013-03-11 09:58:00,
2013-03-11 06:03:00,44.7,25.7,28.56,South,180,9.2,9.2,47,0.00,CLR,CLR,0.00,WeatherDisplay:10.37,2013-03-11 10:03:00,
2013-03-11 06:09:00,44.9,26.4,28.57,South,170,10.4,10.4,48,0.00,CLR,CLR,0.00,WeatherDisplay:10.37,2013-03-11 10:09:00,
2013-03-11 06:14:00,45.0,26.0,28.89,South,176,4.6,4.6,47,0.00,CLR,CLR,0.00,WeatherDisplay:10.37,2013-03-11 10:14:00,
2013-03-11 06:19:00,45.1,25.5,28.89,South,172,5.8,5.8,46,0.00,CLR,CLR,0.00,WeatherDisplay:10.37,2013-03-11 10:19:00,
2013-03-11 06:24:00,45.0,25.4,28.86,South,172,2.3,2.3,46,0.00,CLR,CLR,0.00,WeatherDisplay:10.37,2013-03-11 10:24:00,
2013-03-11 06:29:00,44.6,25.1,28.89,SSE,167,3.5,3.5,46,0.00,CLR,CLR,0.00,WeatherDisplay:10.37,2013-03-11 10:29:00,
2013-03-11 06:35:00,44.3,24.8,28.84,South,178,2.3,2.3,46,0.00,CLR,CLR,0.00,WeatherDisplay:10.37,2013-03-11 10:35:00,
2013-03-11 06:40:00,43.9,24.9,28.87,South,178,2.3,2.3,47,0.00,CLR,CLR,0.00,WeatherDisplay:10.37,2013-03-11 10:40:00,
2013-03-11 06:45:00,43.8,24.9,28.86,SSE,161,3.5,3.5,47,0.00,CLR,CLR,0.00,WeatherDisplay:10.37,2013-03-11 10:45:00,
2013-03-11 06:50:00,43.7,25.3,28.88,SSE,162,2.0,2.0,48,0.00,CLR,CLR,0.00,WeatherDisplay:10.37,2013-03-11 10:50:00,
2013-03-11 06:56:00,43.6,24.7,28.87,SSE,165,5.0,5.0,47,0.00,CLR,CLR,0.00,WeatherDisplay:10.37,2013-03-11 10:56:00,
2013-03-11 07:01:00,43.7,24.8,28.88,South,172,3.5,3.5,47,0.00,CLR,CLR,0.00,WeatherDisplay:10.37,2013-03-11 11:01:00,
2013-03-11 07:06:00,43.8,24.3,28.89,South,185,3.5,3.5,46,0.00,CLR,CLR,0.00,WeatherDisplay:10.37,2013-03-11 11:06:00,
2013-03-11 07:12:00,43.8,23.8,28.83,South,173,3.5,3.5,45,0.00,CLR,CLR,0.00,WeatherDisplay:10.37,2013-03-11 11:12:00,
2013-03-11 07:17:00,43.7,23.7,28.85,SSE,168,4.6,4.6,45,0.00,CLR,CLR,0.00,WeatherDisplay:10.37,2013-03-11 11:17:00,
2013-03-11 07:22:00,43.5,23.0,28.85,South,181,5.8,5.8,44,0.00,CLR,CLR,0.00,WeatherDisplay:10.37,2013-03-11 11:22:00,
2013-03-11 07:28:00,43.5,23.5,28.85,South,187,4.6,4.6,45,0.00,CLR,CLR,0.00,WeatherDisplay:10.37,2013-03-11 11:28:00,
2013-03-11 07:33:00,43.5,23.5,28.87,South,187,1.0,1.0,45,0.00,CLR,CLR,0.00,WeatherDisplay:10.37,2013-03-11 11:33:00,
2013-03-11 07:38:00,43.5,23.5,28.94,South,187,0.0,0.0,45,0.00,CLR,CLR,0.00,WeatherDisplay:10.37,2013-03-11 11:38:00,
2013-03-11 07:43:00,43.5,23.0,28.88,SSW,206,5.8,5.8,44,0.00,CLR,CLR,0.00,WeatherDisplay:10.37,2013-03-11 11:43:00,
2013-03-11 07:48:00,43.7,23.7,29.03,South,189,3.0,3.0,45,0.00,CLR,CLR,0.00,WeatherDisplay:10.37,2013-03-11 11:48:00,
2013-03-11 07:53:00,43.6,23.6,28.96,South,187,3.5,3.5,45,0.00,CLR,CLR,0.00,WeatherDisplay:10.37,2013-03-11 11:53:00,
2013-03-11 07:58:00,43.6,23.1,28.94,South,179,6.9,6.9,44,0.00,CLR,CLR,0.00,WeatherDisplay:10.37,2013-03-11 11:58:00,
2013-03-11 08:03:00,43.7,23.2,28.94,South,178,8.1,8.1,44,0.00,CLR,CLR,0.00,WeatherDisplay:10.37,2013-03-11 12:03:00,
2013-03-11 08:08:00,44.1,22.4,28.95,South,177,8.1,8.1,42,0.00,CLR,CLR,0.00,WeatherDisplay:10.37,2013-03-11 12:08:00,
2013-03-11 08:14:00,44.6,23.5,28.90,SSE,168,8.1,8.1,43,0.00,CLR,CLR,0.00,WeatherDisplay:10.37,2013-03-11 12:14:00,
2013-03-11 08:19:00,44.9,23.2,28.85,SSW,193,8.1,8.1,42,0.00,CLR,CLR,0.00,WeatherDisplay:10.37,2013-03-11 12:19:00,
2013-03-11 08:24:00,45.2,23.4,28.83,South,186,6.0,6.0,42,0.00,CLR,CLR,0.00,WeatherDisplay:10.37,2013-03-11 12:24:00,
2013-03-11 08:29:00,45.4,23.6,28.80,South,184,3.5,3.5,42,0.00,CLR,CLR,0.00,WeatherDisplay:10.37,2013-03-11 12:29:00,
2013-03-11 08:34:00,45.4,24.2,28.83,South,177,5.0,5.0,43,0.00,CLR,CLR,0.00,WeatherDisplay:10.37,2013-03-11 12:34:00,
2013-03-11 08:39:00,45.4,24.7,28.82,South,171,3.5,3.5,44,0.00,CLR,CLR,0.00,WeatherDisplay:10.37,2013-03-11 12:39:00,
2013-03-11 08:44:00,45.4,24.7,28.83,South,174,5.0,5.0,44,0.00,CLR,CLR,0.00,WeatherDisplay:10.37,2013-03-11 12:44:00,
2013-03-11 08:49:00,45.5,23.7,28.84,SSW,210,6.9,6.9,42,0.00,CLR,CLR,0.00,WeatherDisplay:10.37,2013-03-11 12:49:00,
2013-03-11 08:55:00,45.7,25.0,28.83,SSE,165,3.5,3.5,44,0.00,CLR,CLR,0.00,WeatherDisplay:10.37,2013-03-11 12:55:00,
2013-03-11 09:00:00,46.0,24.7,28.83,SSW,200,6.9,6.9,43,0.00,CLR,CLR,0.00,WeatherDisplay:10.37,2013-03-11 13:00:00,
2013-03-11 09:05:00,46.2,24.9,28.86,South,188,3.5,3.5,43,0.00,CLR,CLR,0.00,WeatherDisplay:10.37,2013-03-11 13:05:00,
2013-03-11 09:10:00,46.3,25.0,28.84,SSE,165,11.5,11.5,43,0.00,CLR,CLR,0.00,WeatherDisplay:10.37,2013-03-11 13:10:00,
2013-03-11 09:15:00,46.4,26.2,28.84,South,177,3.5,3.5,45,0.00,CLR,CLR,0.00,WeatherDisplay:10.37,2013-03-11 13:15:00,
2013-03-11 09:20:00,46.4,27.2,28.90,South,173,2.3,2.3,47,0.00,CLR,CLR,0.00,WeatherDisplay:10.37,2013-03-11 13:20:00,
2013-03-11 09:25:00,46.6,27.9,28.92,SW,218,9.2,9.2,48,0.00,CLR,CLR,0.00,WeatherDisplay:10.37,2013-03-11 13:25:00,
2013-03-11 09:30:00,46.8,28.6,28.89,SSW,192,9.2,9.2,49,0.00,CLR,CLR,0.00,WeatherDisplay:10.37,2013-03-11 13:30:00,
2013-03-11 09:35:00,47.0,29.3,28.91,East,100,4.6,4.6,50,0.00,CLR,CLR,0.00,WeatherDisplay:10.37,2013-03-11 13:35:00,
2013-03-11 09:40:00,47.3,30.5,28.92,South,180,8.1,8.1,52,0.00,CLR,CLR,0.00,WeatherDisplay:10.37,2013-03-11 13:40:00,
2013-03-11 09:46:00,47.7,31.4,28.92,SSE,168,5.8,5.8,53,0.00,CLR,CLR,0.00,WeatherDisplay:10.37,2013-03-11 13:46:00,
2013-03-11 09:51:00,48.1,31.3,28.91,SSW,193,3.5,3.5,52,0.00,CLR,CLR,0.00,WeatherDisplay:10.37,2013-03-11 13:51:00,
2013-03-11 09:56:00,48.4,32.0,28.83,South,172,7.0,7.0,53,0.00,CLR,CLR,0.00,WeatherDisplay:10.37,2013-03-11 13:56:00,
2013-03-11 10:01:00,48.6,32.2,28.83,SSE,167,5.8,5.8,53,0.00,CLR,CLR,0.00,WeatherDisplay:10.37,2013-03-11 14:01:00,
2013-03-11 10:07:00,48.8,32.9,28.86,SSE,162,6.0,6.0,54,0.00,CLR,CLR,0.00,WeatherDisplay:10.37,2013-03-11 14:07:00,
2013-03-11 10:12:00,49.1,34.1,28.88,South,182,6.9,6.9,56,0.00,CLR,CLR,0.00,WeatherDisplay:10.37,2013-03-11 14:12:00,
2013-03-11 10:17:00,49.4,33.9,28.87,SSE,168,6.0,6.0,55,0.00,CLR,CLR,0.00,WeatherDisplay:10.37,2013-03-11 14:17:00,
2013-03-11 10:22:00,49.5,34.4,28.88,SSW,194,8.1,8.1,56,0.00,CLR,CLR,0.00,WeatherDisplay:10.37,2013-03-11 14:22:00,
2013-03-11 10:27:00,49.6,35.0,28.92,SSW,196,11.5,11.5,57,0.00,CLR,CLR,0.00,WeatherDisplay:10.37,2013-03-11 14:27:00,
2013-03-11 10:32:00,49.7,35.9,28.89,South,184,5.8,5.8,59,0.00,CLR,CLR,0.00,WeatherDisplay:10.37,2013-03-11 14:32:00,
2013-03-11 10:37:00,50.0,36.2,28.70,SSW,196,6.0,6.0,59,0.00,CLR,CLR,0.00,WeatherDisplay:10.37,2013-03-11 14:37:00,
2013-03-11 10:43:00,50.1,36.3,28.70,SSW,200,9.2,9.2,59,0.00,CLR,CLR,0.00,WeatherDisplay:10.37,2013-03-11 14:43:00,
2013-03-11 10:48:00,50.4,37.0,28.88,South,185,5.8,5.8,60,0.00,CLR,CLR,0.00,WeatherDisplay:10.37,2013-03-11 14:48:00,
2013-03-11 10:53:00,50.7,37.7,28.97,South,188,9.2,9.2,61,0.00,CLR,CLR,0.00,WeatherDisplay:10.37,2013-03-11 14:53:00,
2013-03-11 10:58:00,50.8,37.4,28.87,South,187,8.1,8.1,60,0.00,CLR,CLR,0.00,WeatherDisplay:10.37,2013-03-11 14:58:00,
2013-03-11 11:03:00,51.0,38.0,28.92,SSW,205,5.8,5.8,61,0.00,CLR,CLR,0.00,WeatherDisplay:10.37,2013-03-11 15:03:00,
2013-03-11 11:08:00,51.5,38.5,28.87,South,181,5.0,5.0,61,0.00,CLR,CLR,0.00,WeatherDisplay:10.37,2013-03-11 15:08:00,
2013-03-11 11:14:00,52.1,39.5,28.67,South,182,2.3,2.3,62,0.00,CLR,CLR,0.00,WeatherDisplay:10.37,2013-03-11 15:14:00,
2013-03-11 11:19:00,52.4,39.8,28.67,SSE,148,4.0,4.0,62,0.00,CLR,CLR,0.00,WeatherDisplay:10.37,2013-03-11 15:19:00,
2013-03-11 11:24:00,52.6,40.4,28.65,South,171,3.5,3.5,63,0.00,CLR,CLR,0.00,WeatherDisplay:10.37,2013-03-11 15:24:00,
2013-03-11 11:29:00,52.8,40.5,28.64,SSE,158,7.0,7.0,63,0.00,CLR,CLR,0.00,WeatherDisplay:10.37,2013-03-11 15:29:00,
2013-03-11 11:34:00,52.6,40.8,28.66,SSE,164,4.0,4.0,64,0.00,CLR,CLR,0.00,WeatherDisplay:10.37,2013-03-11 15:34:00,
2013-03-11 11:40:00,52.7,41.7,28.64,SW,214,6.9,6.9,66,0.00,CLR,CLR,0.00,WeatherDisplay:10.37,2013-03-11 15:40:00,
2013-03-11 11:45:00,52.8,41.7,28.72,South,170,4.6,4.6,66,0.00,CLR,CLR,0.00,WeatherDisplay:10.37,2013-03-11 15:45:00,
2013-03-11 11:50:00,52.9,42.2,28.67,SSE,149,5.0,5.0,67,0.00,CLR,CLR,0.00,WeatherDisplay:10.37,2013-03-11 15:50:00,
2013-03-11 11:55:00,52.9,42.6,28.67,SSE,163,11.5,11.5,68,0.00,CLR,CLR,0.00,WeatherDisplay:10.37,2013-03-11 15:55:00,
2013-03-11 12:00:00,52.8,42.5,28.69,SSW,197,3.5,3.5,68,0.00,CLR,CLR,0.00,WeatherDisplay:10.37,2013-03-11 16:00:00,
2013-03-11 12:05:00,52.8,42.9,28.69,SSW,198,3.5,3.5,69,0.00,CLR,CLR,0.00,WeatherDisplay:10.37,2013-03-11 16:05:00,
2013-03-11 12:11:00,52.9,43.4,28.70,South,185,5.0,5.0,70,0.00,CLR,CLR,0.00,WeatherDisplay:10.37,2013-03-11 16:11:00,
2013-03-11 12:16:00,52.9,44.5,28.68,SSE,160,7.0,7.0,73,0.00,CLR,CLR,0.00,WeatherDisplay:10.37,2013-03-11 16:16:00,
2013-03-11 12:22:00,53.0,45.6,28.67,South,175,5.8,5.8,76,0.00,CLR,CLR,0.00,WeatherDisplay:10.37,2013-03-11 16:22:00,
2013-03-11 12:27:00,53.0,46.0,28.68,South,173,3.5,3.5,77,0.00,CLR,CLR,0.00,WeatherDisplay:10.37,2013-03-11 16:27:00,
2013-03-11 12:32:00,53.2,46.5,28.69,South,175,3.5,3.5,78,0.00,CLR,CLR,0.00,WeatherDisplay:10.37,2013-03-11 16:32:00,
2013-03-11 12:37:00,53.5,47.5,28.64,SSW,196,4.6,4.6,80,0.00,CLR,CLR,0.00,WeatherDisplay:10.37,2013-03-11 16:37:00,
2013-03-11 12:42:00,53.6,47.2,28.69,SSW,200,5.8,5.8,79,0.00,CLR,CLR,0.00,WeatherDisplay:10.37,2013-03-11 16:42:00,
2013-03-11 12:47:00,53.7,47.3,28.66,SSW,200,2.3,2.3,79,0.00,CLR,CLR,0.00,WeatherDisplay:10.37,2013-03-11 16:47:00,
2013-03-11 12:53:00,53.7,47.3,28.65,SSE,166,5.8,5.8,79,0.00,CLR,CLR,0.00,WeatherDisplay:10.37,2013-03-11 16:53:00,
2013-03-11 12:58:00,53.8,47.4,28.64,SSE,156,4.6,4.6,79,0.00,CLR,CLR,0.00,WeatherDisplay:10.37,2013-03-11 16:58:00,
2013-03-11 13:03:00,53.8,47.4,28.63,SSE,150,5.0,5.0,79,0.00,CLR,CLR,0.00,WeatherDisplay:10.37,2013-03-11 17:03:00,
2013-03-11 13:08:00,53.7,47.7,28.63,ESE,119,1.2,0.0,80,0.00,CLR,CLR,0.00,WeatherDisplay:10.37,2013-03-11 17:08:00,
2013-03-11 13:13:00,53.8,47.8,28.63,SE,145,2.3,2.3,80,0.00,CLR,CLR,0.00,WeatherDisplay:10.37,2013-03-11 17:13:00,
2013-03-11 13:18:00,53.7,47.7,28.61,South,174,2.3,2.3,80,0.00,CLR,CLR,0.00,WeatherDisplay:10.37,2013-03-11 17:18:00,
2013-03-11 13:23:00,53.6,47.6,28.65,South,174,2.3,2.3,80,0.00,CLR,CLR,0.00,WeatherDisplay:10.37,2013-03-11 17:23:00,
2013-03-11 13:29:00,53.7,47.7,28.67,South,173,2.3,2.3,80,0.00,CLR,CLR,0.00,WeatherDisplay:10.37,2013-03-11 17:29:00,
2013-03-11 13:34:00,53.7,47.7,28.64,South,174,0.0,0.0,80,0.00,CLR,CLR,0.00,WeatherDisplay:10.37,2013-03-11 17:34:00,
2013-03-11 13:39:00,53.7,47.7,28.64,South,174,0.0,0.0,80,0.00,CLR,CLR,0.00,WeatherDisplay:10.37,2013-03-11 17:39:00,
2013-03-11 13:44:00,53.7,47.7,28.63,South,174,0.0,0.0,80,0.00,CLR,CLR,0.00,WeatherDisplay:10.37,2013-03-11 17:44:00,
2013-03-11 13:49:00,53.6,47.9,28.65,South,174,0.0,0.2,81,0.00,CLR,CLR,0.00,WeatherDisplay:10.37,2013-03-11 17:49:00,
2013-03-11 13:55:00,53.6,47.6,28.62,South,174,3.5,3.5,80,0.00,CLR,CLR,0.00,WeatherDisplay:10.37,2013-03-11 17:55:00,
2013-03-11 14:00:00,53.6,47.6,28.61,South,174,0.0,0.0,80,0.00,CLR,CLR,0.00,WeatherDisplay:10.37,2013-03-11 18:00:00,
2013-03-11 14:05:00,53.8,47.8,28.63,South,174,0.0,0.0,80,0.00,CLR,CLR,0.00,WeatherDisplay:10.37,2013-03-11 18:05:00,
2013-03-11 14:10:00,54.0,48.0,28.60,South,174,0.0,0.0,80,0.00,CLR,CLR,0.00,WeatherDisplay:10.37,2013-03-11 18:10:00,
2013-03-11 14:15:00,54.2,48.2,28.62,South,174,0.0,0.0,80,0.00,CLR,CLR,0.00,WeatherDisplay:10.37,2013-03-11 18:15:00,
2013-03-11 14:20:00,54.3,48.3,28.60,South,174,0.0,0.0,80,0.00,CLR,CLR,0.00,WeatherDisplay:10.37,2013-03-11 18:20:00,
2013-03-11 14:25:00,54.4,48.4,28.60,South,174,2.3,2.3,80,0.00,CLR,CLR,0.00,WeatherDisplay:10.37,2013-03-11 18:25:00,
2013-03-11 14:30:00,54.7,48.6,28.61,South,174,0.0,0.0,80,0.00,CLR,CLR,0.00,WeatherDisplay:10.37,2013-03-11 18:30:00,
2013-03-11 14:35:00,54.9,48.8,28.64,South,174,1.0,0.0,80,0.00,CLR,CLR,0.00,WeatherDisplay:10.37,2013-03-11 18:35:00,
2013-03-11 14:40:00,55.0,48.9,28.63,South,178,2.3,2.3,80,0.00,CLR,CLR,0.00,WeatherDisplay:10.37,2013-03-11 18:40:00,
2013-03-11 14:46:00,55.2,48.8,28.64,South,178,2.0,2.0,79,0.00,CLR,CLR,0.00,WeatherDisplay:10.37,2013-03-11 18:46:00,
2013-03-11 14:51:00,55.3,48.9,28.59,South,178,0.0,0.0,79,0.00,CLR,CLR,0.00,WeatherDisplay:10.37,2013-03-11 18:51:00,
2013-03-11 14:56:00,55.8,49.7,28.65,South,178,3.5,3.5,80,0.00,CLR,CLR,0.00,WeatherDisplay:10.37,2013-03-11 18:56:00,
2013-03-11 15:01:00,56.3,50.2,28.61,SSE,166,3.5,3.5,80,0.00,CLR,CLR,0.00,WeatherDisplay:10.37,2013-03-11 19:01:00,
2013-03-11 15:07:00,56.6,49.8,28.59,SW,232,4.0,4.0,78,0.00,CLR,CLR,0.00,WeatherDisplay:10.37,2013-03-11 19:07:00,
2013-03-11 15:12:00,56.7,50.6,28.57,WNW,302,0.0,0.0,80,0.00,CLR,CLR,0.00,WeatherDisplay:10.37,2013-03-11 19:12:00,
2013-03-11 15:17:00,57.1,50.6,28.58,WNW,297,2.0,2.0,79,0.00,CLR,CLR,0.00,WeatherDisplay:10.37,2013-03-11 19:17:00,
2013-03-11 15:22:00,57.3,50.5,28.57,WNW,297,2.3,0.0,78,0.00,CLR,CLR,0.00,WeatherDisplay:10.37,2013-03-11 19:22:00,
2013-03-11 15:27:00,57.7,51.6,28.57,ESE,114,2.0,2.0,80,0.00,CLR,CLR,0.00,WeatherDisplay:10.37,2013-03-11 19:27:00,
2013-03-11 15:32:00,58.0,52.2,28.54,ESE,102,3.5,3.5,81,0.00,CLR,CLR,0.00,WeatherDisplay:10.37,2013-03-11 19:32:00,
2013-03-11 15:38:00,58.2,52.1,28.58,South,174,2.3,2.3,80,0.00,CLR,CLR,0.00,WeatherDisplay:10.37,2013-03-11 19:38:00,
2013-03-11 15:43:00,58.3,52.5,28.61,SE,135,3.5,3.5,81,0.00,CLR,CLR,0.00,WeatherDisplay:10.37,2013-03-11 19:43:00,
2013-03-11 15:48:00,58.3,52.5,28.59,SSW,198,3.5,3.5,81,0.00,CLR,CLR,0.00,WeatherDisplay:10.37,2013-03-11 19:48:00,
2013-03-11 15:53:00,58.6,52.8,28.52,SSW,198,2.3,2.3,81,0.00,CLR,CLR,0.00,WeatherDisplay:10.37,2013-03-11 19:53:00,
2013-03-11 15:59:00,58.8,53.0,28.55,ESE,107,3.5,3.5,81,0.00,CLR,CLR,0.00,WeatherDisplay:10.37,2013-03-11 19:59:00,
2013-03-11 16:04:00,58.9,53.1,28.55,ENE,71,6.0,6.0,81,0.00,CLR,CLR,0.00,WeatherDisplay:10.37,2013-03-11 20:04:00,
2013-03-11 16:09:00,58.9,53.1,28.51,South,172,5.8,5.8,81,0.00,CLR,CLR,0.00,WeatherDisplay:10.37,2013-03-11 20:09:00,
2013-03-11 16:15:00,58.7,52.9,28.49,ESE,117,4.6,4.6,81,0.00,CLR,CLR,0.00,WeatherDisplay:10.37,2013-03-11 20:15:00,
2013-03-11 16:20:00,58.7,52.9,28.49,ENE,76,3.5,3.5,81,0.00,CLR,CLR,0.00,WeatherDisplay:10.37,2013-03-11 20:20:00,
2013-03-11 16:25:00,58.6,52.4,28.48,ENE,60,2.3,0.0,80,0.00,CLR,CLR,0.00,WeatherDisplay:10.37,2013-03-11 20:25:00,
2013-03-11 16:30:00,58.5,52.4,28.49,ENE,66,1.2,1.2,80,0.00,CLR,CLR,0.00,WeatherDisplay:10.37,2013-03-11 20:30:00,
2013-03-11 16:35:00,58.6,52.4,28.48,ENE,66,0.0,0.0,80,0.00,CLR,CLR,0.00,WeatherDisplay:10.37,2013-03-11 20:35:00,
2013-03-11 16:40:00,58.6,52.4,28.47,NNE,20,5.8,5.8,80,0.00,CLR,CLR,0.00,WeatherDisplay:10.37,2013-03-11 20:40:00,
2013-03-11 16:45:00,58.7,52.5,28.49,SSE,157,2.3,2.3,80,0.00,CLR,CLR,0.00,WeatherDisplay:10.37,2013-03-11 20:45:00,
2013-03-11 16:51:00,58.8,52.6,28.50,South,173,3.5,3.5,80,0.00,CLR,CLR,0.00,WeatherDisplay:10.37,2013-03-11 20:51:00,
2013-03-11 16:56:00,59.0,52.8,28.50,NW,312,4.6,4.6,80,0.00,CLR,CLR,0.00,WeatherDisplay:10.37,2013-03-11 20:56:00,
2013-03-11 17:01:00,59.0,52.8,28.56,South,171,9.2,9.2,80,0.00,CLR,CLR,0.00,WeatherDisplay:10.37,2013-03-11 21:01:00,
2013-03-11 17:06:00,59.1,52.6,28.54,SSW,201,4.0,4.3,79,0.00,CLR,CLR,0.00,WeatherDisplay:10.37,2013-03-11 21:06:00,
2013-03-11 17:11:00,59.2,53.0,28.49,SSE,157,5.8,5.8,80,0.00,CLR,CLR,0.00,WeatherDisplay:10.37,2013-03-11 21:11:00,
2013-03-11 17:16:00,59.3,52.8,28.54,ENE,70,5.0,5.0,79,0.00,CLR,CLR,0.00,WeatherDisplay:10.37,2013-03-11 21:16:00,
2013-03-11 17:22:00,59.3,53.1,28.48,SE,130,6.9,6.9,80,0.00,CLR,CLR,0.00,WeatherDisplay:10.37,2013-03-11 21:22:00,
2013-03-11 17:27:00,59.4,53.2,28.48,NNE,26,3.5,3.5,80,0.00,CLR,CLR,0.00,WeatherDisplay:10.37,2013-03-11 21:27:00,
2013-03-11 17:32:00,59.4,52.9,28.48,ESE,118,3.5,3.5,79,0.00,CLR,CLR,0.00,WeatherDisplay:10.37,2013-03-11 21:32:00,
2013-03-11 17:37:00,59.5,53.0,28.54,WNW,289,3.5,3.5,79,0.00,CLR,CLR,0.00,WeatherDisplay:10.37,2013-03-11 21:37:00,
2013-03-11 17:43:00,59.5,53.0,28.52,ESE,114,2.3,2.3,79,0.00,CLR,CLR,0.00,WeatherDisplay:10.37,2013-03-11 21:43:00,
2013-03-11 17:48:00,59.5,53.0,28.57,ESE,115,2.3,2.3,79,0.00,CLR,CLR,0.00,WeatherDisplay:10.37,2013-03-11 21:48:00,
2013-03-11 17:53:00,59.5,53.0,28.55,ESE,115,3.5,3.5,79,0.00,CLR,CLR,0.00,WeatherDisplay:10.37,2013-03-11 21:53:00,
2013-03-11 17:58:00,59.5,53.0,28.55,SE,133,2.0,2.0,79,0.00,CLR,CLR,0.00,WeatherDisplay:10.37,2013-03-11 21:58:00,
2013-03-11 18:04:00,59.5,51.9,28.35,SE,134,2.3,2.3,76,0.00,CLR,CLR,0.00,WeatherDisplay:10.37,2013-03-11 22:04:00,
2013-03-11 18:09:00,59.4,52.2,28.35,South,185,2.3,2.3,77,0.00,CLR,CLR,0.00,WeatherDisplay:10.37,2013-03-11 22:09:00,
2013-03-11 18:14:00,59.3,52.1,28.34,ESE,103,3.0,3.0,77,0.00,CLR,CLR,0.00,WeatherDisplay:10.37,2013-03-11 22:14:00,
2013-03-11 18:19:00,59.3,52.1,28.34,SSW,206,2.3,2.3,77,0.00,CLR,CLR,0.00,WeatherDisplay:10.37,2013-03-11 22:19:00,
2013-03-11 18:24:00,59.2,52.0,28.34,SSW,207,0.0,0.0,77,0.00,CLR,CLR,0.00,WeatherDisplay:10.37,2013-03-11 22:24:00,
2013-03-11 18:29:00,59.0,51.8,28.35,ESE,104,3.5,3.5,77,0.00,CLR,CLR,0.00,WeatherDisplay:10.37,2013-03-11 22:29:00,
2013-03-11 18:34:00,58.9,51.7,28.34,ENE,75,3.5,3.5,77,0.00,CLR,CLR,0.00,WeatherDisplay:10.37,2013-03-11 22:34:00,
2013-03-11 18:40:00,58.9,52.1,28.33,NE,40,2.3,2.3,78,0.00,CLR,CLR,0.00,WeatherDisplay:10.37,2013-03-11 22:40:00,
2013-03-11 18:45:00,58.8,52.0,28.33,ESE,121,3.5,0.0,78,0.00,CLR,CLR,0.00,WeatherDisplay:10.37,2013-03-11 22:45:00,
2013-03-11 18:50:00,58.8,52.0,28.33,ESE,103,1.2,1.2,78,0.00,CLR,CLR,0.00,WeatherDisplay:10.37,2013-03-11 22:50:00,
2013-03-11 18:55:00,58.8,52.0,28.33,ESE,121,3.5,3.5,78,0.00,CLR,CLR,0.00,WeatherDisplay:10.37,2013-03-11 22:55:00,
2013-03-11 19:00:00,58.7,52.2,28.33,South,186,2.3,2.3,79,0.00,CLR,CLR,0.00,WeatherDisplay:10.37,2013-03-11 23:00:00,
2013-03-11 19:05:00,58.7,52.2,28.33,East,95,4.6,4.6,79,0.00,CLR,CLR,0.00,WeatherDisplay:10.37,2013-03-11 23:05:00,
2013-03-11 19:10:00,58.6,52.4,28.34,ESE,122,3.5,3.5,80,0.00,CLR,CLR,0.00,WeatherDisplay:10.37,2013-03-11 23:10:00,
2013-03-11 19:16:00,58.6,52.4,28.34,ESE,117,2.3,2.3,80,0.00,CLR,CLR,0.00,WeatherDisplay:10.37,2013-03-11 23:16:00,
2013-03-11 19:22:00,58.6,52.4,28.34,SSW,208,3.5,3.5,80,0.00,CLR,CLR,0.00,WeatherDisplay:10.37,2013-03-11 23:22:00,
2013-03-11 19:27:00,58.5,52.4,28.34,SE,134,1.2,1.2,80,0.00,CLR,CLR,0.00,WeatherDisplay:10.37,2013-03-11 23:27:00,
2013-03-11 19:32:00,58.5,52.7,28.35,SSE,168,3.5,3.5,81,0.00,CLR,CLR,0.00,WeatherDisplay:10.37,2013-03-11 23:32:00,
2013-03-11 19:37:00,58.5,52.7,28.35,SW,216,3.5,3.5,81,0.00,CLR,CLR,0.00,WeatherDisplay:10.37,2013-03-11 23:37:00,
2013-03-11 19:42:00,58.4,52.6,28.35,ESE,116,0.0,0.0,81,0.00,CLR,CLR,0.00,WeatherDisplay:10.37,2013-03-11 23:42:00,
2013-03-11 19:48:00,58.4,52.9,28.35,ENE,62,4.6,4.6,82,0.00,CLR,CLR,0.00,WeatherDisplay:10.37,2013-03-11 23:48:00,
2013-03-11 19:53:00,58.3,52.8,28.35,East,79,2.3,2.3,82,0.00,CLR,CLR,0.00,WeatherDisplay:10.37,2013-03-11 23:53:00,
2013-03-11 19:58:00,58.3,52.8,28.35,ENE,78,1.2,1.2,82,0.00,CLR,CLR,0.00,WeatherDisplay:10.37,2013-03-11 23:58:00,
2013-03-11 20:03:00,58.2,52.7,28.34,SSW,201,2.3,2.3,82,0.00,CLR,CLR,0.00,WeatherDisplay:10.37,2013-03-12 00:03:00,
2013-03-11 20:09:00,58.2,52.7,28.34,SE,124,3.5,3.5,82,0.00,CLR,CLR,0.00,WeatherDisplay:10.37,2013-03-12 00:09:00,
2013-03-11 20:14:00,58.2,52.7,28.34,North,0,3.5,3.5,82,0.00,CLR,CLR,0.00,WeatherDisplay:10.37,2013-03-12 00:14:00,
2013-03-11 20:19:00,58.2,52.7,28.34,South,177,3.5,3.5,82,0.00,CLR,CLR,0.00,WeatherDisplay:10.37,2013-03-12 00:19:00,
2013-03-11 20:24:00,58.2,53.1,28.33,SW,228,4.0,4.0,83,0.00,CLR,CLR,0.00,WeatherDisplay:10.37,2013-03-12 00:24:00,
2013-03-11 20:30:00,58.2,52.7,28.34,SSE,152,3.5,3.5,82,0.00,CLR,CLR,0.00,WeatherDisplay:10.37,2013-03-12 00:30:00,
2013-03-11 20:35:00,58.2,53.1,28.34,SSE,161,2.3,2.3,83,0.00,CLR,CLR,0.00,WeatherDisplay:10.37,2013-03-12 00:35:00,
2013-03-11 20:40:00,58.1,53.0,28.34,South,190,5.0,5.0,83,0.00,CLR,CLR,0.00,WeatherDisplay:10.37,2013-03-12 00:40:00,
2013-03-11 20:46:00,58.1,53.3,28.33,ENE,78,4.0,4.0,84,0.00,CLR,CLR,0.00,WeatherDisplay:10.37,2013-03-12 00:46:00,
2013-03-11 20:51:00,58.0,53.2,28.32,SE,129,3.0,3.0,84,0.00,CLR,CLR,0.00,WeatherDisplay:10.37,2013-03-12 00:51:00,
2013-03-11 20:56:00,57.9,53.1,28.31,ENE,69,3.5,3.5,84,0.00,CLR,CLR,0.00,WeatherDisplay:10.37,2013-03-12 00:56:00,
2013-03-11 21:01:00,57.8,53.0,28.31,ENE,67,2.3,2.3,84,0.00,CLR,CLR,0.00,WeatherDisplay:10.37,2013-03-12 01:01:00,
2013-03-11 21:06:00,57.7,52.9,28.31,East,85,3.5,3.5,84,0.00,CLR,CLR,0.00,WeatherDisplay:10.37,2013-03-12 01:06:00,
2013-03-11 21:11:00,57.7,52.9,28.32,ESE,103,3.5,3.5,84,0.00,CLR,CLR,0.00,WeatherDisplay:10.37,2013-03-12 01:11:00,
2013-03-11 21:16:00,57.6,53.1,28.33,ESE,120,2.3,2.3,85,0.00,CLR,CLR,0.00,WeatherDisplay:10.37,2013-03-12 01:16:00,
2013-03-11 21:21:00,57.6,53.1,28.33,SW,235,3.5,3.5,85,0.00,CLR,CLR,0.00,WeatherDisplay:10.37,2013-03-12 01:21:00,
2013-03-11 21:27:00,57.6,53.1,28.33,South,191,3.5,3.5,85,0.00,CLR,CLR,0.00,WeatherDisplay:10.37,2013-03-12 01:27:00,
2013-03-11 21:32:00,57.6,53.1,28.32,SSW,210,2.3,2.3,85,0.00,CLR,CLR,0.00,WeatherDisplay:10.37,2013-03-12 01:32:00,
2013-03-11 21:37:00,57.5,53.0,28.33,SW,232,3.5,3.5,85,0.00,CLR,CLR,0.00,WeatherDisplay:10.37,2013-03-12 01:37:00,
2013-03-11 21:42:00,57.5,53.0,28.32,East,92,4.6,4.6,85,0.00,CLR,CLR,0.00,WeatherDisplay:10.37,2013-03-12 01:42:00,
2013-03-11 21:47:00,57.5,53.0,28.32,SE,143,4.6,4.6,85,0.00,CLR,CLR,0.00,WeatherDisplay:10.37,2013-03-12 01:47:00,
2013-03-11 21:52:00,57.4,52.9,28.31,SE,131,5.0,5.0,85,0.00,CLR,CLR,0.00,WeatherDisplay:10.37,2013-03-12 01:52:00,
2013-03-11 21:57:00,57.3,53.1,28.32,NW,324,3.5,3.5,86,0.00,CLR,CLR,0.00,WeatherDisplay:10.37,2013-03-12 01:57:00,
2013-03-11 22:02:00,57.4,53.2,28.32,SE,135,5.0,5.0,86,0.00,CLR,CLR,0.00,WeatherDisplay:10.37,2013-03-12 02:02:00,
2013-03-11 22:08:00,57.4,53.2,28.31,SE,133,3.5,3.5,86,0.00,CLR,CLR,0.00,WeatherDisplay:10.37,2013-03-12 02:08:00,
2013-03-11 22:13:00,57.4,53.2,28.32,West,265,2.3,2.3,86,0.00,CLR,CLR,0.00,WeatherDisplay:10.37,2013-03-12 02:13:00,
2013-03-11 22:18:00,57.4,53.6,28.32,South,175,3.5,3.5,87,0.00,CLR,CLR,0.00,WeatherDisplay:10.37,2013-03-12 02:18:00,
2013-03-11 22:23:00,57.4,53.2,28.32,South,178,5.0,5.0,86,0.00,CLR,CLR,0.00,WeatherDisplay:10.37,2013-03-12 02:23:00,
2013-03-11 22:28:00,57.4,53.2,28.32,South,181,6.0,6.0,86,0.00,CLR,CLR,0.00,WeatherDisplay:10.37,2013-03-12 02:28:00,
2013-03-11 22:33:00,57.5,53.7,28.32,SSE,158,4.6,4.6,87,0.00,CLR,CLR,0.00,WeatherDisplay:10.37,2013-03-12 02:33:00,
2013-03-11 22:39:00,57.4,53.6,28.32,SSW,195,5.0,5.0,87,0.00,CLR,CLR,0.00,WeatherDisplay:10.37,2013-03-12 02:39:00,
2013-03-11 22:44:00,57.4,53.6,28.31,North,7,3.5,3.5,87,0.00,CLR,CLR,0.00,WeatherDisplay:10.37,2013-03-12 02:44:00,
2013-03-11 22:49:00,57.3,53.8,28.32,South,180,5.8,5.8,88,0.00,CLR,CLR,0.00,WeatherDisplay:10.37,2013-03-12 02:49:00,
2013-03-11 22:54:00,57.2,54.3,28.32,South,185,3.5,3.5,90,0.00,CLR,CLR,0.00,WeatherDisplay:10.37,2013-03-12 02:54:00,
2013-03-11 23:00:00,56.9,54.3,28.32,South,182,5.0,5.0,91,0.01,RA,RA,0.01,WeatherDisplay:10.37,2013-03-12 03:00:00,
2013-03-11 23:05:00,56.6,54.6,28.32,ESE,109,4.6,4.6,93,0.02,RA,RA,0.02,WeatherDisplay:10.37,2013-03-12 03:05:00,
2013-03-11 23:10:00,56.3,54.3,28.31,ESE,119,3.0,3.0,93,0.02,RA,RA,0.02,WeatherDisplay:10.37,2013-03-12 03:10:00,
2013-03-11 23:15:00,56.0,54.6,28.31,South,174,2.3,2.3,95,0.03,RA,RA,0.03,WeatherDisplay:10.37,2013-03-12 03:15:00,
2013-03-11 23:20:00,55.8,54.7,28.31,North,0,1.2,1.2,96,0.03,RA,RA,0.03,WeatherDisplay:10.37,2013-03-12 03:20:00,
2013-03-11 23:26:00,55.6,54.5,28.31,South,187,3.5,3.5,96,0.03,,,0.03,WeatherDisplay:10.37,2013-03-12 03:26:00,
2013-03-11 23:32:00,55.3,54.5,28.31,West,263,2.3,2.3,97,0.04,RA,RA,0.04,WeatherDisplay:10.37,2013-03-12 03:32:00,
2013-03-11 23:37:00,55.1,54.5,28.31,WSW,254,1.2,1.2,98,0.04,RA,RA,0.04,WeatherDisplay:10.37,2013-03-12 03:37:00,
2013-03-11 23:42:00,54.9,54.3,28.30,SSE,147,5.0,5.0,98,0.05,RA,RA,0.05,WeatherDisplay:10.37,2013-03-12 03:42:00,
2013-03-11 23:47:00,54.8,54.5,28.31,ENE,71,1.2,1.2,99,0.05,RA,RA,0.06,WeatherDisplay:10.37,2013-03-12 03:47:00,
2013-03-11 23:52:00,54.7,54.7,28.30,SW,229,3.5,3.5,100,0.06,RA,RA,0.06,WeatherDisplay:10.37,2013-03-12 03:52:00,
2013-03-11 23:58:00,54.6,54.6,28.30,South,189,2.3,2.3,100,0.05,RA,RA,0.06,WeatherDisplay:10.37,2013-03-12 03:58:00,